TimeEDT,TemperatureF,Dew PointF,Humidity,Sea Level PressureIn,VisibilityMPH,Wind Direction,Wind SpeedMPH,Gust SpeedMPH,PrecipitationIn,Events,Conditions,WindDirDegrees,DateUTC
12:51 AM,59.0,55.0,87,29.75,7.0,WNW,4.6,-,N/A,,Clear,300,2013-05-16 04:51:00
1:51 AM,59.0,55.0,87,29.74,6.0,Calm,Calm,-,N/A,,Partly Cloudy,0,2013-05-16 05:51:00
2:51 AM,55.9,54.0,93,29.74,5.0,SW,3.5,-,N/A,,Partly Cloudy,220,2013-05-16 06:51:00
3:51 AM,55.9,54.0,93,29.73,3.0,Calm,Calm,-,N/A,,Clear,0,2013-05-16 07:51:00
4:14 AM,55.4,53.6,94,29.74,2.5,NNW,4.6,-,N/A,,Clear,330,2013-05-16 08:14:00
4:39 AM,53.6,51.8,94,29.74,1.5,Calm,Calm,-,N/A,,Clear,0,2013-05-16 08:39:00
4:51 AM,55.0,53.1,93,29.74,1.5,Calm,Calm,-,N/A,,Clear,0,2013-05-16 08:51:00
5:51 AM,54.0,53.1,97,29.76,1.8,Calm,Calm,-,N/A,,Clear,0,2013-05-16 09:51:00
6:01 AM,55.4,53.6,94,29.77,2.5,WSW,3.5,-,N/A,,Partly Cloudy,250,2013-05-16 10:01:00
6:51 AM,55.9,55.0,97,29.79,2.0,NNW,3.5,-,N/A,,Scattered Clouds,330,2013-05-16 10:51:00
7:51 AM,60.1,57.0,90,29.81,2.5,Calm,Calm,-,N/A,,Partly Cloudy,0,2013-05-16 11:51:00
8:01 AM,60.8,57.2,88,29.82,3.0,WSW,5.8,-,N/A,,Scattered Clouds,250,2013-05-16 12:01:00
8:51 AM,62.1,57.0,84,29.83,4.0,SSW,5.8,-,0.00,Rain,Light Rain,210,2013-05-16 12:51:00
9:51 AM,66.9,57.9,73,29.81,6.0,Variable,3.5,-,0.00,,Haze,0,2013-05-16 13:51:00
10:51 AM,71.1,57.9,63,29.81,7.0,Calm,Calm,-,N/A,,Clear,0,2013-05-16 14:51:00
11:51 AM,73.9,57.0,55,29.80,9.0,South,5.8,-,N/A,,Clear,190,2013-05-16 15:51:00
12:51 PM,75.9,55.0,48,29.78,10.0,SSW,3.5,-,N/A,,Clear,210,2013-05-16 16:51:00
1:51 PM,78.1,55.9,46,29.78,10.0,WSW,6.9,-,N/A,,Clear,250,2013-05-16 17:51:00
2:51 PM,81.0,60.1,49,29.76,10.0,WSW,9.2,-,N/A,,Clear,240,2013-05-16 18:51:00
3:51 PM,82.9,46.0,27,29.74,10.0,WNW,13.8,23.0,N/A,,Clear,300,2013-05-16 19:51:00
4:51 PM,82.9,44.1,25,29.74,10.0,West,12.7,20.7,N/A,,Clear,270,2013-05-16 20:51:00
5:51 PM,82.0,45.0,27,29.74,10.0,NW,10.4,20.7,N/A,,Clear,310,2013-05-16 21:51:00
6:51 PM,81.0,43.0,26,29.76,10.0,WNW,8.1,-,N/A,,Clear,290,2013-05-16 22:51:00
7:51 PM,75.9,44.1,32,29.77,10.0,West,4.6,-,N/A,,Clear,260,2013-05-16 23:51:00
8:51 PM,73.0,43.0,34,29.80,10.0,WNW,3.5,-,N/A,,Clear,290,2013-05-17 00:51:00
9:51 PM,64.9,44.1,47,29.83,10.0,Calm,Calm,-,N/A,,Clear,0,2013-05-17 01:51:00
10:51 PM,66.9,41.0,39,29.85,10.0,NW,3.5,-,N/A,,Clear,310,2013-05-17 02:51:00
11:51 PM,64.9,41.0,42,29.88,10.0,WNW,4.6,-,N/A,,Clear,290,2013-05-17 03:51:00